| time (UTC) | temp F | wind direction | speed knots | gust knots | rain 1hr in | rain 24hr in | rain mn in | humidity % | barometer mb |
| 20260502163733 | 56 | 183 | 0.9 | 2.6 | 0.00 | 0.12 | 0.05 | 76 | 1023.8 |
| 20260502162724 | 54 | 246 | 0.9 | 5.2 | 0.00 | 0.12 | 0.05 | 78 | 1023.8 |
| 20260502160734 | 52 | 271 | 0.9 | 3.5 | 0.00 | 0.12 | 0.05 | 82 | 1024.0 |
| 20260502151722 | 52 | 226 | 3.5 | 7.8 | 0.00 | 0.12 | 0.05 | 86 | 1023.4 |
| 20260502130729 | 49 | 220 | 0.0 | 1.7 | 0.00 | 0.17 | 0.05 | 89 | 1022.1 |
| 20260502123714 | 49 | 284 | 0.9 | 5.2 | 0.00 | 0.19 | 0.05 | 90 | 1021.6 |
| 20260502122710 | 49 | 285 | 1.7 | 7.0 | 0.00 | 0.19 | 0.05 | 90 | 1022.4 |
| 20260502121721 | 50 | 332 | 1.7 | 4.3 | 0.00 | 0.19 | 0.05 | 91 | 1022.2 |
| 20260502120720 | 50 | 284 | 1.7 | 2.6 | 0.00 | 0.19 | 0.05 | 91 | 1022.1 |
| 20260502115711 | 50 | 273 | 1.7 | 2.6 | 0.00 | 0.19 | 0.05 | 91 | 1021.9 |
| 20260502114726 | 50 | 62 | 0.0 | 0.9 | 0.01 | 0.19 | 0.05 | 90 | 1021.7 |
| 20260502113725 | 50 | 62 | 0.9 | 1.7 | 0.02 | 0.19 | 0.05 | 90 | 1021.8 |
| 20260502112717 | 50 | 73 | 0.0 | 1.7 | 0.02 | 0.19 | 0.05 | 90 | 1021.9 |
| 20260502111727 | 50 | 70 | 0.0 | 1.7 | 0.03 | 0.19 | 0.05 | 90 | 1021.9 |
| 20260502110726 | 50 | 96 | 0.9 | 1.7 | 0.03 | 0.19 | 0.05 | 89 | 1021.8 |
| 20260502105724 | 50 | 138 | 0.0 | 2.6 | 0.04 | 0.30 | 0.05 | 89 | 1022.0 |
| 20260502104714 | 50 | 204 | 0.0 | 1.7 | 0.03 | 0.29 | 0.04 | 88 | 1022.0 |
| 20260502103725 | 50 | 241 | 0.9 | 4.3 | 0.03 | 0.28 | 0.03 | 87 | 1022.1 |
| 20260502102716 | 51 | 238 | 1.7 | 3.5 | 0.03 | 0.28 | 0.03 | 87 | 1022.1 |
| 20260502101710 | 51 | 243 | 2.6 | 5.2 | 0.02 | 0.27 | 0.02 | 85 | 1022.1 |
| 20260502100725 | 52 | 267 | 2.6 | 7.0 | 0.02 | 0.27 | 0.02 | 86 | 1022.0 |
| 20260502070716 | 53 | 256 | 0.0 | 3.5 | 0.00 | 0.38 | 0.00 | 81 | 1020.9 |
| 20260502064715 | 53 | 323 | 0.9 | 2.6 | 0.00 | 0.38 | 0.00 | 82 | 1020.6 |
| 20260502063711 | 53 | 360 | 1.7 | 2.6 | 0.00 | 0.38 | 0.00 | 83 | 1020.3 |
| 20260502061724 | 53 | 173 | 0.0 | 3.5 | 0.00 | 0.38 | 0.00 | 84 | 1020.0 |
| 20260502060722 | 53 | 178 | 0.9 | 3.5 | 0.00 | 0.38 | 0.00 | 84 | 1019.8 |
| 20260502054707 | 54 | 211 | 1.7 | 6.1 | 0.00 | 0.38 | 0.38 | 84 | 1019.7 |
| 20260502053719 | 54 | 154 | 3.5 | 6.1 | 0.00 | 0.38 | 0.38 | 84 | 1019.7 |
| 20260502052718 | 55 | 200 | 5.2 | 9.6 | 0.00 | 0.38 | 0.38 | 84 | 1019.6 |
| 20260502051708 | 55 | 198 | 3.5 | 6.1 | 0.00 | 0.38 | 0.38 | 81 | 1019.3 |
| 20260502050706 | 55 | 103 | 3.5 | 6.1 | 0.00 | 0.38 | 0.38 | 74 | 1019.3 |
| 20260502045704 | 55 | 26 | 4.3 | 7.8 | 0.00 | 0.38 | 0.38 | 72 | 1019.2 |
| 20260502044722 | 54 | 105 | 3.5 | 6.1 | 0.00 | 0.38 | 0.38 | 73 | 1018.9 |
| 20260502043719 | 54 | 140 | 2.6 | 6.1 | 0.00 | 0.38 | 0.38 | 75 | 1018.7 |
| 20260502042717 | 54 | 38 | 0.0 | 3.5 | 0.00 | 0.38 | 0.38 | 79 | 1018.8 |
| 20260502040709 | 55 | 87 | 0.0 | 1.7 | 0.00 | 0.38 | 0.38 | 85 | 1018.8 |
| 20260502034719 | 55 | 261 | 0.0 | 0.0 | 0.00 | 0.38 | 0.38 | 85 | 1018.5 |
| 20260502033705 | 55 | 325 | 0.0 | 0.9 | 0.00 | 0.38 | 0.38 | 85 | 1018.3 |
| 20260502032711 | 55 | 320 | 0.0 | 2.6 | 0.00 | 0.38 | 0.38 | 87 | 1018.0 |
| 20260502031708 | 55 | 328 | 0.0 | 1.7 | 0.01 | 0.38 | 0.38 | 87 | 1018.3 |
| 20260502030703 | 55 | 328 | 0.9 | 3.5 | 0.01 | 0.38 | 0.38 | 87 | 1018.2 |
| 20260502025703 | 55 | 291 | 0.9 | 2.6 | 0.01 | 0.38 | 0.38 | 87 | 1017.9 |
| 20260502024711 | 55 | 211 | 0.0 | 2.6 | 0.01 | 0.38 | 0.38 | 86 | 1017.7 |
| 20260502023706 | 55 | 82 | 0.0 | 0.9 | 0.03 | 0.38 | 0.38 | 85 | 1017.3 |
| 20260502022721 | 55 | 80 | 0.0 | 2.6 | 0.05 | 0.38 | 0.38 | 85 | 1017.1 |
| 20260502021715 | 55 | 130 | 1.7 | 5.2 | 0.06 | 0.37 | 0.37 | 84 | 1016.9 |
| 20260502020709 | 55 | 206 | 1.7 | 5.2 | 0.06 | 0.37 | 0.37 | 85 | 1016.8 |
| 20260502015721 | 56 | 189 | 2.6 | 6.1 | 0.06 | 0.37 | 0.37 | 84 | 1016.7 |
| 20260502014717 | 56 | 343 | 0.0 | 3.5 | 0.06 | 0.37 | 0.37 | 83 | 1016.9 |
| 20260502013709 | 56 | 318 | 2.6 | 11.3 | 0.04 | 0.35 | 0.35 | 81 | 1017.2 |
| 20260502012701 | 57 | 318 | 3.5 | 13.9 | 0.02 | 0.33 | 0.33 | 78 | 1017.0 |
| 20260502011718 | 60 | 351 | 8.7 | 14.8 | 0.01 | 0.32 | 0.32 | 71 | 1016.8 |
| 20260502010711 | 62 | 15 | 1.7 | 8.7 | 0.00 | 0.31 | 0.31 | 62 | 1016.0 |
| 20260502005705 | 63 | 91 | 3.5 | 11.3 | 0.00 | 0.31 | 0.31 | 54 | 1015.4 |
| 20260502004714 | 64 | 81 | 5.2 | 12.2 | 0.00 | 0.31 | 0.31 | 51 | 1015.2 |
| 20260502003708 | 65 | 60 | 7.8 | 11.3 | 0.00 | 0.31 | 0.31 | 49 | 1015.3 |
| 20260502002704 | 65 | 57 | 4.3 | 9.6 | 0.00 | 0.31 | 0.31 | 49 | 1015.1 |
| 20260502001713 | 66 | 20 | 6.1 | 10.4 | 0.00 | 0.31 | 0.31 | 47 | 1015.1 |
| 20260502000708 | 66 | 80 | 6.1 | 9.6 | 0.00 | 0.31 | 0.31 | 44 | 1015.1 |
| 20260501235705 | 66 | 79 | 2.6 | 9.6 | 0.00 | 0.31 | 0.31 | 44 | 1015.0 |
| 20260501234714 | 67 | 11 | 7.0 | 11.3 | 0.00 | 0.31 | 0.31 | 43 | 1014.9 |
| 20260501233709 | 67 | 9 | 6.1 | 8.7 | 0.00 | 0.31 | 0.31 | 43 | 1014.9 |
| 20260501232705 | 68 | 50 | 0.9 | 7.8 | 0.00 | 0.31 | 0.31 | 40 | 1014.9 |
| 20260501231659 | 69 | 26 | 3.5 | 8.7 | 0.00 | 0.31 | 0.31 | 41 | 1014.7 |
| 20260501230734 | 69 | 28 | 2.6 | 9.6 | 0.00 | 0.31 | 0.31 | 41 | 1014.4 |
| 20260501225711 | 70 | 76 | 6.1 | 10.4 | 0.00 | 0.31 | 0.31 | 40 | 1014.3 |
| 20260501224708 | 70 | 64 | 3.5 | 8.7 | 0.00 | 0.31 | 0.31 | 40 | 1014.2 |
| 20260501223659 | 71 | 115 | 1.7 | 9.6 | 0.00 | 0.31 | 0.31 | 38 | 1014.1 |
| 20260501222714 | 71 | 5 | 2.6 | 7.8 | 0.00 | 0.31 | 0.31 | 38 | 1014.1 |
| 20260501221713 | 70 | 97 | 3.5 | 8.7 | 0.00 | 0.31 | 0.31 | 40 | 1014.0 |
| 20260501220700 | 70 | 73 | 1.7 | 9.6 | 0.00 | 0.31 | 0.31 | 40 | 1014.1 |
| 20260501215715 | 70 | 26 | 3.5 | 8.7 | 0.00 | 0.31 | 0.31 | 40 | 1014.2 |
| 20260501214656 | 69 | 351 | 3.5 | 7.8 | 0.00 | 0.31 | 0.31 | 40 | 1014.2 |
| 20260501213713 | 69 | 22 | 6.1 | 9.6 | 0.00 | 0.31 | 0.31 | 43 | 1014.4 |
| 20260501212706 | 69 | 23 | 6.1 | 10.4 | 0.00 | 0.31 | 0.31 | 42 | 1014.6 |
| 20260501211703 | 69 | 24 | 3.5 | 8.7 | 0.00 | 0.31 | 0.31 | 43 | 1014.7 |
| 20260501210658 | 69 | 34 | 5.2 | 8.7 | 0.00 | 0.31 | 0.31 | 44 | 1014.7 |
| 20260501205655 | 68 | 58 | 4.3 | 12.2 | 0.00 | 0.31 | 0.31 | 44 | 1014.7 |
| 20260501204654 | 68 | 42 | 6.1 | 9.6 | 0.00 | 0.31 | 0.31 | 45 | 1014.8 |
| 20260501203708 | 68 | 49 | 5.2 | 8.7 | 0.00 | 0.31 | 0.31 | 49 | 1015.0 |
| 20260501202704 | 67 | 27 | 6.1 | 10.4 | 0.00 | 0.31 | 0.31 | 49 | 1015.0 |
| 20260501201658 | 65 | 57 | 5.2 | 13.0 | 0.00 | 0.31 | 0.31 | 52 | 1015.0 |
| 20260501195711 | 65 | 36 | 6.1 | 12.2 | 0.00 | 0.31 | 0.31 | 54 | 1015.0 |
| 20260501194710 | 65 | 5 | 8.7 | 11.3 | 0.00 | 0.31 | 0.31 | 53 | 1014.9 |
| 20260501193712 | 66 | 44 | 5.2 | 10.4 | 0.00 | 0.31 | 0.31 | 54 | 1015.0 |
| 20260501192657 | 65 | 63 | 5.2 | 8.7 | 0.00 | 0.31 | 0.31 | 55 | 1015.9 |
| 20260501191654 | 65 | 24 | 6.1 | 10.4 | 0.00 | 0.31 | 0.31 | 56 | 1015.9 |